Time,TemperatureF,DewpointF,PressureIn,WindDirection,WindDirectionDegrees,WindSpeedMPH,WindSpeedGustMPH,Humidity,HourlyPrecipIn,Conditions,Clouds,dailyrainin,SoftwareType,DateUTC
2013-07-11 00:03:00,55.1,51.8,30.06,North,0,0.0,0.0,89,0.00,,,0.00,WUHU216HW,2013-07-11 07:03:00,
2013-07-11 00:08:00,55.1,51.8,30.06,North,0,0.0,0.0,89,0.00,,,0.00,WUHU216HW,2013-07-11 07:08:00,
2013-07-11 00:14:00,54.9,51.7,30.06,North,0,0.0,0.0,89,0.00,,,0.00,WUHU216HW,2013-07-11 07:14:00,
2013-07-11 00:19:00,54.9,51.7,30.06,North,0,0.0,0.0,89,0.00,,,0.00,WUHU216HW,2013-07-11 07:19:00,
2013-07-11 00:24:00,54.9,51.7,30.06,North,0,0.0,0.0,89,0.00,,,0.00,WUHU216HW,2013-07-11 07:24:00,
2013-07-11 00:29:00,54.9,51.7,30.06,North,0,0.0,0.0,89,0.00,,,0.00,WUHU216HW,2013-07-11 07:29:00,
2013-07-11 00:34:00,54.7,51.5,30.06,North,0,0.0,0.0,89,0.00,,,0.00,WUHU216HW,2013-07-11 07:34:00,
2013-07-11 00:39:00,54.7,51.5,30.06,North,0,0.0,0.0,89,0.00,,,0.00,WUHU216HW,2013-07-11 07:39:00,
2013-07-11 00:44:00,54.7,51.5,30.06,North,0,0.0,0.0,89,0.00,,,0.00,WUHU216HW,2013-07-11 07:44:00,
2013-07-11 00:49:00,54.7,51.5,30.06,North,0,0.0,0.0,89,0.00,,,0.00,WUHU216HW,2013-07-11 07:49:00,
2013-07-11 00:54:00,54.7,51.5,30.06,North,0,0.0,0.0,89,0.00,,,0.00,WUHU216HW,2013-07-11 07:54:00,
2013-07-11 00:59:00,54.7,51.5,30.05,North,0,0.0,0.0,89,0.00,,,0.00,WUHU216HW,2013-07-11 07:59:00,
2013-07-11 01:04:00,54.7,51.5,30.05,North,0,0.0,0.0,89,0.00,,,0.00,WUHU216HW,2013-07-11 08:04:00,
2013-07-11 01:09:00,54.5,51.3,30.05,North,0,0.0,0.0,89,0.00,,,0.00,WUHU216HW,2013-07-11 08:09:00,
2013-07-11 01:14:00,54.5,51.3,30.05,North,0,0.0,0.0,89,0.00,,,0.00,WUHU216HW,2013-07-11 08:14:00,
2013-07-11 01:19:00,54.5,51.3,30.05,North,0,0.0,0.0,89,0.00,,,0.00,WUHU216HW,2013-07-11 08:19:00,
2013-07-11 01:24:00,54.5,51.3,30.05,North,0,0.0,0.0,89,0.00,,,0.00,WUHU216HW,2013-07-11 08:24:00,
2013-07-11 01:29:00,54.5,51.3,30.05,North,0,0.0,0.0,89,0.00,,,0.00,WUHU216HW,2013-07-11 08:29:00,
2013-07-11 01:34:00,54.5,51.3,30.05,North,0,0.0,0.0,89,0.00,,,0.00,WUHU216HW,2013-07-11 08:34:00,
2013-07-11 01:39:00,54.5,51.3,30.05,North,0,0.0,0.0,89,0.00,,,0.00,WUHU216HW,2013-07-11 08:39:00,
2013-07-11 01:44:00,54.5,51.3,30.05,North,0,0.0,0.0,89,0.00,,,0.00,WUHU216HW,2013-07-11 08:44:00,
2013-07-11 01:49:00,54.4,51.2,30.05,North,0,0.0,0.0,89,0.00,,,0.00,WUHU216HW,2013-07-11 08:49:00,
2013-07-11 01:54:00,54.4,51.2,30.05,North,0,0.0,0.0,89,0.00,,,0.00,WUHU216HW,2013-07-11 08:54:00,
2013-07-11 01:59:00,54.4,51.2,30.05,North,0,0.0,0.0,89,0.00,,,0.00,WUHU216HW,2013-07-11 08:59:00,
2013-07-11 02:04:00,54.2,51.3,30.05,North,0,0.0,0.0,90,0.00,,,0.00,WUHU216HW,2013-07-11 09:04:00,
2013-07-11 02:09:00,54.2,51.3,30.05,North,0,0.0,0.0,90,0.00,,,0.00,WUHU216HW,2013-07-11 09:09:00,
2013-07-11 02:14:00,54.2,51.3,30.05,North,0,0.0,0.0,90,0.00,,,0.00,WUHU216HW,2013-07-11 09:14:00,
2013-07-11 02:19:00,54.0,51.1,30.04,North,0,0.0,0.0,90,0.00,,,0.00,WUHU216HW,2013-07-11 09:19:00,
2013-07-11 02:24:00,54.2,51.3,30.04,North,0,0.0,0.0,90,0.00,,,0.00,WUHU216HW,2013-07-11 09:24:00,
2013-07-11 02:29:00,54.2,51.3,30.05,North,0,0.0,0.0,90,0.00,,,0.00,WUHU216HW,2013-07-11 09:29:00,
2013-07-11 02:34:00,54.2,51.3,30.05,North,0,0.0,0.0,90,0.00,,,0.00,WUHU216HW,2013-07-11 09:34:00,
2013-07-11 02:39:00,54.2,51.3,30.05,North,0,0.0,0.0,90,0.00,,,0.00,WUHU216HW,2013-07-11 09:39:00,
2013-07-11 02:44:00,54.2,51.3,30.04,North,0,0.0,0.0,90,0.00,,,0.00,WUHU216HW,2013-07-11 09:44:00,
2013-07-11 02:49:00,54.2,51.3,30.04,North,0,0.0,0.0,90,0.00,,,0.00,WUHU216HW,2013-07-11 09:49:00,
2013-07-11 02:54:00,54.2,51.3,30.04,North,0,0.0,0.0,90,0.00,,,0.00,WUHU216HW,2013-07-11 09:54:00,
2013-07-11 02:59:00,54.2,51.6,30.04,North,0,0.0,0.0,91,0.00,,,0.00,WUHU216HW,2013-07-11 09:59:00,
2013-07-11 03:04:00,54.0,51.4,30.04,North,0,0.0,0.0,91,0.00,,,0.00,WUHU216HW,2013-07-11 10:04:00,
2013-07-11 03:09:00,54.2,51.6,30.04,North,0,0.0,0.0,91,0.00,,,0.00,WUHU216HW,2013-07-11 10:09:00,
2013-07-11 03:14:00,54.2,51.6,30.04,North,0,0.0,0.0,91,0.00,,,0.00,WUHU216HW,2013-07-11 10:14:00,
2013-07-11 03:19:00,54.0,51.4,30.04,North,0,0.0,0.0,91,0.00,,,0.00,WUHU216HW,2013-07-11 10:19:00,
2013-07-11 03:24:00,54.0,51.4,30.04,North,0,0.0,0.0,91,0.00,,,0.00,WUHU216HW,2013-07-11 10:24:00,
2013-07-11 03:29:00,54.0,51.4,30.04,North,0,0.0,0.0,91,0.00,,,0.00,WUHU216HW,2013-07-11 10:29:00,
2013-07-11 03:34:00,54.0,51.4,30.04,North,0,0.0,0.0,91,0.00,,,0.00,WUHU216HW,2013-07-11 10:34:00,
2013-07-11 03:39:00,54.0,51.4,30.04,North,0,0.0,0.0,91,0.00,,,0.00,WUHU216HW,2013-07-11 10:39:00,
2013-07-11 03:44:00,54.0,51.7,30.04,North,0,0.0,0.0,92,0.00,,,0.00,WUHU216HW,2013-07-11 10:44:00,
2013-07-11 03:49:00,53.8,51.5,30.04,North,0,0.0,0.0,92,0.00,,,0.00,WUHU216HW,2013-07-11 10:49:00,
2013-07-11 03:54:00,53.6,51.3,30.04,North,0,0.0,0.0,92,0.00,,,0.00,WUHU216HW,2013-07-11 10:54:00,
2013-07-11 03:59:00,53.6,51.3,30.04,North,0,0.0,0.0,92,0.00,,,0.00,WUHU216HW,2013-07-11 10:59:00,
2013-07-11 04:04:00,53.6,51.3,30.04,North,0,0.0,0.0,92,0.00,,,0.00,WUHU216HW,2013-07-11 11:04:00,
2013-07-11 04:09:00,53.8,51.5,30.04,North,0,0.0,0.0,92,0.00,,,0.00,WUHU216HW,2013-07-11 11:09:00,
2013-07-11 04:14:00,53.6,51.3,30.04,North,0,0.0,0.0,92,0.00,,,0.00,WUHU216HW,2013-07-11 11:14:00,
2013-07-11 04:19:00,53.6,51.3,30.04,North,0,0.0,0.0,92,0.00,,,0.00,WUHU216HW,2013-07-11 11:19:00,
2013-07-11 04:24:00,53.6,51.3,30.04,North,0,0.0,0.0,92,0.00,,,0.00,WUHU216HW,2013-07-11 11:24:00,
2013-07-11 04:29:00,53.8,51.5,30.04,North,0,0.0,0.0,92,0.00,,,0.00,WUHU216HW,2013-07-11 11:29:00,
2013-07-11 04:34:00,53.8,51.5,30.04,North,0,0.0,0.0,92,0.00,,,0.00,WUHU216HW,2013-07-11 11:34:00,
2013-07-11 04:39:00,53.8,51.5,30.04,North,0,0.0,0.0,92,0.00,,,0.00,WUHU216HW,2013-07-11 11:39:00,
2013-07-11 04:44:00,53.8,51.5,30.04,North,0,0.0,0.0,92,0.00,,,0.00,WUHU216HW,2013-07-11 11:44:00,
2013-07-11 04:49:00,53.8,51.5,30.04,North,0,0.0,0.0,92,0.00,,,0.00,WUHU216HW,2013-07-11 11:49:00,
2013-07-11 04:54:00,53.6,51.3,30.04,North,0,0.0,0.0,92,0.00,,,0.00,WUHU216HW,2013-07-11 11:54:00,
2013-07-11 04:59:00,53.8,51.5,30.04,North,0,0.0,0.0,92,0.00,,,0.00,WUHU216HW,2013-07-11 11:59:00,
2013-07-11 05:04:00,53.6,51.3,30.04,North,0,0.0,0.0,92,0.00,,,0.00,WUHU216HW,2013-07-11 12:04:00,
2013-07-11 05:09:00,53.6,51.3,30.04,North,0,0.0,0.0,92,0.00,,,0.00,WUHU216HW,2013-07-11 12:09:00,
2013-07-11 05:14:00,53.6,51.3,30.04,North,0,0.0,0.0,92,0.00,,,0.00,WUHU216HW,2013-07-11 12:14:00,
2013-07-11 05:19:00,53.6,51.3,30.05,North,0,0.0,0.0,92,0.00,,,0.00,WUHU216HW,2013-07-11 12:19:00,
2013-07-11 05:24:00,53.6,51.3,30.05,North,0,0.0,0.0,92,0.00,,,0.00,WUHU216HW,2013-07-11 12:24:00,
2013-07-11 05:29:00,53.6,51.3,30.05,North,0,0.0,0.0,92,0.00,,,0.00,WUHU216HW,2013-07-11 12:29:00,
2013-07-11 05:34:00,53.6,51.3,30.05,North,0,0.0,0.0,92,0.00,,,0.00,WUHU216HW,2013-07-11 12:34:00,
2013-07-11 05:39:00,53.6,51.3,30.05,North,0,0.0,0.0,92,0.00,,,0.00,WUHU216HW,2013-07-11 12:39:00,
2013-07-11 05:44:00,53.6,51.3,30.05,North,0,0.0,0.0,92,0.00,,,0.00,WUHU216HW,2013-07-11 12:44:00,
2013-07-11 05:49:00,53.6,51.3,30.05,North,0,0.0,0.0,92,0.00,,,0.00,WUHU216HW,2013-07-11 12:49:00,
2013-07-11 05:54:00,53.6,51.3,30.05,North,0,0.0,0.0,92,0.00,,,0.00,WUHU216HW,2013-07-11 12:54:00,
2013-07-11 05:59:00,53.6,51.3,30.05,North,0,0.0,0.0,92,0.00,,,0.00,WUHU216HW,2013-07-11 12:59:00,
2013-07-11 06:04:00,53.6,51.3,30.05,North,0,0.0,0.0,92,0.00,,,0.00,WUHU216HW,2013-07-11 13:04:00,
2013-07-11 06:09:00,53.6,51.3,30.05,North,0,0.0,0.0,92,0.00,,,0.00,WUHU216HW,2013-07-11 13:09:00,
2013-07-11 06:14:00,53.6,51.3,30.05,North,0,0.0,0.0,92,0.00,,,0.00,WUHU216HW,2013-07-11 13:14:00,
2013-07-11 06:19:00,53.6,51.3,30.05,North,0,0.0,0.0,92,0.00,,,0.00,WUHU216HW,2013-07-11 13:19:00,
2013-07-11 06:24:00,53.6,51.3,30.05,North,0,0.0,0.0,92,0.00,,,0.00,WUHU216HW,2013-07-11 13:24:00,
2013-07-11 06:29:00,53.6,51.3,30.05,North,0,0.0,0.0,92,0.00,,,0.00,WUHU216HW,2013-07-11 13:29:00,
2013-07-11 06:34:00,53.6,51.3,30.05,North,0,0.0,0.0,92,0.00,,,0.00,WUHU216HW,2013-07-11 13:34:00,
2013-07-11 06:39:00,53.6,51.3,30.05,North,0,0.0,0.0,92,0.00,,,0.00,WUHU216HW,2013-07-11 13:39:00,
2013-07-11 06:44:00,53.6,51.3,30.05,North,0,0.0,0.0,92,0.00,,,0.00,WUHU216HW,2013-07-11 13:44:00,
2013-07-11 06:49:00,53.6,51.3,30.05,North,0,0.0,0.0,92,0.00,,,0.00,WUHU216HW,2013-07-11 13:49:00,
2013-07-11 06:54:00,53.6,51.3,30.05,North,0,0.0,0.0,92,0.00,,,0.00,WUHU216HW,2013-07-11 13:54:00,
2013-07-11 06:59:00,53.6,51.3,30.05,North,0,0.0,0.0,92,0.00,,,0.00,WUHU216HW,2013-07-11 13:59:00,
2013-07-11 07:04:00,53.6,51.3,30.05,North,0,0.0,0.0,92,0.00,,,0.00,WUHU216HW,2013-07-11 14:04:00,
2013-07-11 07:10:00,53.6,51.3,30.05,North,0,0.0,0.0,92,0.00,,,0.00,WUHU216HW,2013-07-11 14:10:00,
2013-07-11 07:15:00,53.6,51.3,30.05,North,0,0.0,0.0,92,0.00,,,0.00,WUHU216HW,2013-07-11 14:15:00,
2013-07-11 07:20:00,53.8,51.5,30.05,North,0,0.0,0.0,92,0.00,,,0.00,WUHU216HW,2013-07-11 14:20:00,
2013-07-11 07:26:00,53.8,51.5,30.05,North,0,0.0,0.0,92,0.00,,,0.00,WUHU216HW,2013-07-11 14:26:00,
2013-07-11 07:31:00,53.6,51.3,30.05,North,0,0.0,0.0,92,0.00,,,0.00,WUHU216HW,2013-07-11 14:31:00,
2013-07-11 07:36:00,53.6,51.3,30.05,North,0,0.0,0.0,92,0.00,,,0.00,WUHU216HW,2013-07-11 14:36:00,
2013-07-11 07:41:00,53.8,51.5,30.05,North,0,0.0,0.0,92,0.00,,,0.00,WUHU216HW,2013-07-11 14:41:00,
2013-07-11 07:46:00,53.8,51.5,30.05,North,0,0.0,0.0,92,0.00,,,0.00,WUHU216HW,2013-07-11 14:46:00,
2013-07-11 07:51:00,53.6,51.3,30.05,North,0,0.0,0.0,92,0.00,,,0.00,WUHU216HW,2013-07-11 14:51:00,
2013-07-11 07:56:00,53.6,51.3,30.05,North,0,0.0,0.0,92,0.00,,,0.00,WUHU216HW,2013-07-11 14:56:00,
2013-07-11 08:01:00,53.8,51.5,30.06,North,0,0.0,0.0,92,0.00,,,0.00,WUHU216HW,2013-07-11 15:01:00,
2013-07-11 08:06:00,53.8,51.5,30.06,North,0,0.0,0.0,92,0.00,,,0.00,WUHU216HW,2013-07-11 15:06:00,
2013-07-11 08:11:00,53.6,51.3,30.06,North,0,0.0,0.0,92,0.00,,,0.00,WUHU216HW,2013-07-11 15:11:00,
2013-07-11 08:16:00,53.6,51.3,30.06,North,0,0.0,0.0,92,0.00,,,0.00,WUHU216HW,2013-07-11 15:16:00,
2013-07-11 08:21:00,53.8,51.5,30.06,North,0,0.0,0.0,92,0.00,,,0.00,WUHU216HW,2013-07-11 15:21:00,
2013-07-11 08:26:00,54.0,51.7,30.06,North,0,0.0,0.0,92,0.00,,,0.00,WUHU216HW,2013-07-11 15:26:00,
2013-07-11 08:31:00,54.0,51.7,30.06,North,0,0.0,0.0,92,0.00,,,0.00,WUHU216HW,2013-07-11 15:31:00,
2013-07-11 08:36:00,54.2,51.8,30.06,North,0,0.0,0.0,92,0.00,,,0.00,WUHU216HW,2013-07-11 15:36:00,
2013-07-11 08:41:00,54.4,52.0,30.06,North,0,0.0,0.0,92,0.00,,,0.00,WUHU216HW,2013-07-11 15:41:00,
2013-07-11 08:46:00,54.4,52.0,30.06,North,0,0.0,0.0,92,0.00,,,0.00,WUHU216HW,2013-07-11 15:46:00,
2013-07-11 08:51:00,54.4,52.0,30.06,North,0,0.0,0.0,92,0.00,,,0.00,WUHU216HW,2013-07-11 15:51:00,
2013-07-11 08:56:00,54.4,52.0,30.06,North,0,0.0,0.0,92,0.00,,,0.00,WUHU216HW,2013-07-11 15:56:00,
2013-07-11 09:01:00,54.4,52.0,30.06,North,0,0.0,0.0,92,0.00,,,0.00,WUHU216HW,2013-07-11 16:01:00,
2013-07-11 09:06:00,54.5,52.2,30.07,North,0,0.0,0.0,92,0.00,,,0.00,WUHU216HW,2013-07-11 16:06:00,
2013-07-11 09:11:00,54.9,52.6,30.07,North,0,0.0,0.0,92,0.00,,,0.00,WUHU216HW,2013-07-11 16:11:00,
2013-07-11 09:16:00,55.1,52.5,30.06,North,0,0.0,0.0,91,0.00,,,0.00,WUHU216HW,2013-07-11 16:16:00,
2013-07-11 09:21:00,55.4,52.8,30.07,North,0,0.0,0.0,91,0.00,,,0.00,WUHU216HW,2013-07-11 16:21:00,
2013-07-11 09:26:00,55.4,52.8,30.07,North,0,0.0,0.0,91,0.00,,,0.00,WUHU216HW,2013-07-11 16:26:00,
2013-07-11 09:31:00,55.6,53.0,30.07,North,0,0.0,0.0,91,0.00,,,0.00,WUHU216HW,2013-07-11 16:31:00,
2013-07-11 09:37:00,55.6,52.7,30.07,North,0,0.0,0.0,90,0.00,,,0.00,WUHU216HW,2013-07-11 16:37:00,
2013-07-11 09:42:00,55.8,52.9,30.06,North,0,0.0,0.0,90,0.00,,,0.00,WUHU216HW,2013-07-11 16:42:00,
2013-07-11 09:47:00,55.8,52.9,30.06,North,0,0.0,0.0,90,0.00,,,0.00,WUHU216HW,2013-07-11 16:47:00,
2013-07-11 09:52:00,56.2,53.3,30.06,North,0,0.0,0.0,90,0.00,,,0.00,WUHU216HW,2013-07-11 16:52:00,
2013-07-11 09:57:00,56.5,53.6,30.06,North,0,0.0,0.0,90,0.00,,,0.00,WUHU216HW,2013-07-11 16:57:00,
2013-07-11 10:02:00,56.5,53.3,30.06,North,0,0.0,0.0,89,0.00,,,0.00,WUHU216HW,2013-07-11 17:02:00,
2013-07-11 10:07:00,56.5,53.3,30.07,North,0,0.0,0.0,89,0.00,,,0.00,WUHU216HW,2013-07-11 17:07:00,
2013-07-11 10:12:00,56.7,53.5,30.06,North,0,0.0,0.0,89,0.00,,,0.00,WUHU216HW,2013-07-11 17:12:00,
2013-07-11 10:17:00,56.7,53.2,30.06,North,0,0.0,0.0,88,0.00,,,0.00,WUHU216HW,2013-07-11 17:17:00,
2013-07-11 10:22:00,56.9,53.4,30.06,North,0,0.0,0.0,88,0.00,,,0.00,WUHU216HW,2013-07-11 17:22:00,
2013-07-11 10:27:00,57.1,53.2,30.06,North,0,0.0,0.0,87,0.00,,,0.00,WUHU216HW,2013-07-11 17:27:00,
2013-07-11 10:32:00,57.2,53.1,30.07,North,0,0.0,0.0,86,0.00,,,0.00,WUHU216HW,2013-07-11 17:32:00,
2013-07-11 10:37:00,57.8,53.9,30.07,North,0,0.0,0.0,87,0.00,,,0.00,WUHU216HW,2013-07-11 17:37:00,
2013-07-11 10:42:00,58.0,53.8,30.07,North,0,0.0,0.0,86,0.00,,,0.00,WUHU216HW,2013-07-11 17:42:00,
2013-07-11 10:47:00,58.3,54.2,30.07,North,0,0.0,0.0,86,0.00,,,0.00,WUHU216HW,2013-07-11 17:47:00,
2013-07-11 10:52:00,58.7,54.6,30.06,North,0,0.0,0.0,86,0.00,,,0.00,WUHU216HW,2013-07-11 17:52:00,
2013-07-11 10:57:00,59.0,54.5,30.07,North,0,0.0,0.0,85,0.00,,,0.00,WUHU216HW,2013-07-11 17:57:00,
2013-07-11 11:02:00,58.9,53.7,30.07,North,0,0.0,0.0,83,0.00,,,0.00,WUHU216HW,2013-07-11 18:02:00,
2013-07-11 11:07:00,59.2,54.1,30.07,North,0,0.0,0.0,83,0.00,,,0.00,WUHU216HW,2013-07-11 18:07:00,
2013-07-11 11:12:00,59.4,54.3,30.07,North,0,0.0,0.0,83,0.00,,,0.00,WUHU216HW,2013-07-11 18:12:00,
2013-07-11 11:17:00,59.6,53.8,30.07,North,0,0.0,0.0,81,0.00,,,0.00,WUHU216HW,2013-07-11 18:17:00,
2013-07-11 11:22:00,59.6,54.1,30.07,North,0,0.0,0.0,82,0.00,,,0.00,WUHU216HW,2013-07-11 18:22:00,
2013-07-11 11:27:00,60.5,54.7,30.07,North,0,0.0,0.0,81,0.00,,,0.00,WUHU216HW,2013-07-11 18:27:00,
2013-07-11 11:33:00,60.8,54.0,30.07,North,0,0.0,0.0,78,0.00,,,0.00,WUHU216HW,2013-07-11 18:33:00,
2013-07-11 11:38:00,60.8,54.0,30.07,North,0,0.0,0.0,78,0.00,,,0.00,WUHU216HW,2013-07-11 18:38:00,
2013-07-11 11:43:00,60.5,54.0,30.07,North,0,0.0,0.0,79,0.00,,,0.00,WUHU216HW,2013-07-11 18:43:00,
2013-07-11 11:48:00,60.5,53.6,30.07,North,0,0.0,0.0,78,0.00,,,0.00,WUHU216HW,2013-07-11 18:48:00,
2013-07-11 11:53:00,60.5,53.6,30.08,North,0,0.0,0.0,78,0.00,,,0.00,WUHU216HW,2013-07-11 18:53:00,
2013-07-11 11:58:00,60.5,53.3,30.08,North,0,0.0,0.0,77,0.00,,,0.00,WUHU216HW,2013-07-11 18:58:00,
2013-07-11 12:03:00,60.8,53.6,30.08,North,0,0.0,0.0,77,0.00,,,0.00,WUHU216HW,2013-07-11 19:03:00,
2013-07-11 12:08:00,60.8,53.3,30.08,North,0,0.0,0.0,76,0.00,,,0.00,WUHU216HW,2013-07-11 19:08:00,
2013-07-11 12:13:00,60.8,53.3,30.08,North,0,0.0,0.0,76,0.00,,,0.00,WUHU216HW,2013-07-11 19:13:00,
2013-07-11 12:18:00,60.8,53.6,30.08,North,0,0.0,0.0,77,0.00,,,0.00,WUHU216HW,2013-07-11 19:18:00,
2013-07-11 12:23:00,61.2,54.0,30.08,North,0,0.0,0.0,77,0.00,,,0.00,WUHU216HW,2013-07-11 19:23:00,
2013-07-11 12:28:00,61.2,53.7,30.08,North,0,0.0,0.0,76,0.00,,,0.00,WUHU216HW,2013-07-11 19:28:00,
2013-07-11 12:33:00,61.4,53.7,30.08,North,0,0.0,0.0,76,0.00,,,0.00,WUHU216HW,2013-07-11 19:33:00,
2013-07-11 12:38:00,61.2,53.3,30.08,North,0,0.0,0.0,75,0.00,,,0.00,WUHU216HW,2013-07-11 19:38:00,
2013-07-11 12:43:00,61.6,53.6,30.08,North,0,0.0,0.0,75,0.00,,,0.00,WUHU216HW,2013-07-11 19:43:00,
2013-07-11 12:48:00,62.1,54.5,30.08,North,0,0.0,0.0,76,0.00,,,0.00,WUHU216HW,2013-07-11 19:48:00,
2013-07-11 12:53:00,63.4,55.6,30.08,North,0,0.0,0.0,76,0.00,,,0.00,WUHU216HW,2013-07-11 19:53:00,
2013-07-11 12:59:00,63.4,54.9,30.08,North,0,0.0,0.0,74,0.00,,,0.00,WUHU216HW,2013-07-11 19:59:00,
2013-07-11 13:04:00,63.0,54.2,30.08,North,0,0.0,0.0,73,0.00,,,0.00,WUHU216HW,2013-07-11 20:04:00,
2013-07-11 13:09:00,63.4,55.3,30.08,North,0,0.0,0.0,75,0.00,,,0.00,WUHU216HW,2013-07-11 20:09:00,
2013-07-11 13:14:00,64.1,54.9,30.08,North,0,0.0,0.0,72,0.00,,,0.00,WUHU216HW,2013-07-11 20:14:00,
2013-07-11 13:19:00,64.4,55.6,30.08,North,0,0.0,0.0,73,0.00,,,0.00,WUHU216HW,2013-07-11 20:19:00,
2013-07-11 13:24:00,65.3,56.1,30.08,North,0,0.0,0.0,72,0.00,,,0.00,WUHU216HW,2013-07-11 20:24:00,
2013-07-11 13:29:00,66.6,56.9,30.08,North,0,0.0,0.0,71,0.00,,,0.00,WUHU216HW,2013-07-11 20:29:00,
2013-07-11 13:34:00,66.6,55.3,30.08,North,0,0.0,0.0,67,0.00,,,0.00,WUHU216HW,2013-07-11 20:34:00,
2013-07-11 13:39:00,65.9,55.8,30.08,North,0,0.0,0.0,70,0.00,,,0.00,WUHU216HW,2013-07-11 20:39:00,
2013-07-11 13:44:00,65.5,55.5,30.08,North,0,0.0,0.0,70,0.00,,,0.00,WUHU216HW,2013-07-11 20:44:00,
2013-07-11 13:49:00,65.0,55.0,30.08,North,0,0.0,0.0,70,0.00,,,0.00,WUHU216HW,2013-07-11 20:49:00,
2013-07-11 13:54:00,64.6,55.5,30.07,North,0,0.0,0.0,72,0.00,,,0.00,WUHU216HW,2013-07-11 20:54:00,
2013-07-11 13:59:00,65.2,55.9,30.07,North,0,0.0,0.0,72,0.00,,,0.00,WUHU216HW,2013-07-11 20:59:00,
2013-07-11 14:04:00,65.2,55.5,30.07,North,0,0.0,0.0,71,0.00,,,0.00,WUHU216HW,2013-07-11 21:04:00,
2013-07-11 14:09:00,64.8,54.9,30.07,North,0,0.0,0.0,70,0.00,,,0.00,WUHU216HW,2013-07-11 21:09:00,
2013-07-11 14:14:00,64.4,55.3,30.07,North,0,0.0,0.0,72,0.00,,,0.00,WUHU216HW,2013-07-11 21:14:00,
2013-07-11 14:19:00,64.3,55.1,30.07,North,0,0.0,0.0,72,0.00,,,0.00,WUHU216HW,2013-07-11 21:19:00,
2013-07-11 14:25:00,64.6,55.8,30.07,North,0,0.0,0.0,73,0.00,,,0.00,WUHU216HW,2013-07-11 21:25:00,
2013-07-11 14:29:00,64.6,55.5,30.07,North,0,0.0,0.0,72,0.00,,,0.00,WUHU216HW,2013-07-11 21:29:00,
2013-07-11 14:36:00,63.9,54.7,30.07,North,0,0.0,0.0,72,0.00,,,0.00,WUHU216HW,2013-07-11 21:36:00,
2013-07-11 14:42:00,63.4,54.9,30.07,North,0,0.0,0.0,74,0.00,,,0.00,WUHU216HW,2013-07-11 21:42:00,
2013-07-11 14:48:00,63.4,54.9,30.07,North,0,0.0,0.0,74,0.00,,,0.00,WUHU216HW,2013-07-11 21:48:00,
2013-07-11 14:56:00,63.9,55.4,30.07,North,0,0.0,0.0,74,0.00,,,0.00,WUHU216HW,2013-07-11 21:56:00,
2013-07-11 15:08:00,63.5,55.1,30.07,North,0,0.0,0.0,74,0.00,,,0.00,WUHU216HW,2013-07-11 22:08:00,
2013-07-11 15:16:00,62.5,54.0,30.07,North,0,0.0,0.0,74,0.00,,,0.00,WUHU216HW,2013-07-11 22:16:00,
2013-07-11 15:21:00,62.5,54.4,30.06,North,0,0.0,0.0,75,0.00,,,0.00,WUHU216HW,2013-07-11 22:21:00,
2013-07-11 15:26:00,62.6,54.5,30.06,North,0,0.0,0.0,75,0.00,,,0.00,WUHU216HW,2013-07-11 22:26:00,
2013-07-11 15:31:00,62.5,54.4,30.06,North,0,0.0,0.0,75,0.00,,,0.00,WUHU216HW,2013-07-11 22:31:00,
2013-07-11 15:36:00,62.5,54.4,30.06,North,0,0.0,0.0,75,0.00,,,0.00,WUHU216HW,2013-07-11 22:36:00,
2013-07-11 15:41:00,62.5,54.4,30.06,North,0,0.0,0.0,75,0.00,,,0.00,WUHU216HW,2013-07-11 22:41:00,
2013-07-11 15:46:00,62.5,54.0,30.06,North,0,0.0,0.0,74,0.00,,,0.00,WUHU216HW,2013-07-11 22:46:00,
2013-07-11 15:51:00,62.1,54.1,30.06,North,0,0.0,0.0,75,0.00,,,0.00,WUHU216HW,2013-07-11 22:51:00,
2013-07-11 15:56:00,62.1,54.1,30.06,North,0,0.0,0.0,75,0.00,,,0.00,WUHU216HW,2013-07-11 22:56:00,
2013-07-11 16:01:00,61.7,53.7,30.06,North,0,0.0,0.0,75,0.00,,,0.00,WUHU216HW,2013-07-11 23:01:00,
2013-07-11 17:13:00,59.9,53.1,30.05,North,0,0.0,0.0,78,0.00,,,0.00,WUHU216HW,2013-07-12 00:13:00,
2013-07-11 17:18:00,59.8,53.3,30.05,North,0,0.0,0.0,79,0.00,,,0.00,WUHU216HW,2013-07-12 00:18:00,
2013-07-11 17:24:00,59.4,52.9,30.05,North,0,0.0,0.0,79,0.00,,,0.00,WUHU216HW,2013-07-12 00:24:00,
2013-07-11 17:29:00,59.0,52.6,30.05,North,0,0.0,0.0,79,0.00,,,0.00,WUHU216HW,2013-07-12 00:29:00,
2013-07-11 17:34:00,59.0,52.9,30.05,North,0,0.0,0.0,80,0.00,,,0.00,WUHU216HW,2013-07-12 00:34:00,
2013-07-11 17:40:00,59.0,52.6,30.05,North,0,0.0,0.0,79,0.00,,,0.00,WUHU216HW,2013-07-12 00:40:00,
2013-07-11 17:45:00,58.7,52.6,30.05,North,0,0.0,0.0,80,0.00,,,0.00,WUHU216HW,2013-07-12 00:45:00,
2013-07-11 17:50:00,58.9,52.7,30.05,North,0,0.0,0.0,80,0.00,,,0.00,WUHU216HW,2013-07-12 00:50:00,
2013-07-11 17:55:00,58.9,52.7,30.05,North,0,0.0,0.0,80,0.00,,,0.00,WUHU216HW,2013-07-12 00:55:00,
2013-07-11 18:00:00,58.9,52.7,30.05,North,0,0.0,0.0,80,0.00,,,0.00,WUHU216HW,2013-07-12 01:00:00,
2013-07-11 18:05:00,58.7,52.6,30.05,North,0,0.0,0.0,80,0.00,,,0.00,WUHU216HW,2013-07-12 01:05:00,
2013-07-11 18:10:00,58.7,52.6,30.05,North,0,0.0,0.0,80,0.00,,,0.00,WUHU216HW,2013-07-12 01:10:00,
2013-07-11 18:16:00,58.5,52.4,30.05,North,0,0.0,0.0,80,0.00,,,0.00,WUHU216HW,2013-07-12 01:16:00,
2013-07-11 18:21:00,58.3,52.6,30.05,North,0,0.0,0.0,81,0.00,,,0.00,WUHU216HW,2013-07-12 01:21:00,
2013-07-11 18:26:00,58.1,52.4,30.05,North,0,0.0,0.0,81,0.00,,,0.00,WUHU216HW,2013-07-12 01:26:00,
2013-07-11 18:31:00,58.1,52.4,30.05,North,0,0.0,0.0,81,0.00,,,0.00,WUHU216HW,2013-07-12 01:31:00,
2013-07-11 18:36:00,58.0,52.2,30.05,North,0,0.0,0.0,81,0.00,,,0.00,WUHU216HW,2013-07-12 01:36:00,
2013-07-11 18:41:00,58.1,52.4,30.05,North,0,0.0,0.0,81,0.00,,,0.00,WUHU216HW,2013-07-12 01:41:00,
2013-07-11 18:46:00,58.0,52.2,30.05,North,0,0.0,0.0,81,0.00,,,0.00,WUHU216HW,2013-07-12 01:46:00,
2013-07-11 18:51:00,57.4,51.9,30.04,North,0,0.0,0.0,82,0.00,,,0.00,WUHU216HW,2013-07-12 01:51:00,
2013-07-11 18:56:00,57.6,52.1,30.04,North,0,0.0,0.0,82,0.00,,,0.00,WUHU216HW,2013-07-12 01:56:00,
2013-07-11 19:01:00,57.4,52.3,30.05,North,0,0.0,0.0,83,0.00,,,0.00,WUHU216HW,2013-07-12 02:01:00,
2013-07-11 19:07:00,57.4,52.3,30.05,North,0,0.0,0.0,83,0.00,,,0.00,WUHU216HW,2013-07-12 02:07:00,
2013-07-11 19:12:00,57.2,52.1,30.05,North,0,0.0,0.0,83,0.00,,,0.00,WUHU216HW,2013-07-12 02:12:00,
2013-07-11 19:17:00,57.2,52.1,30.04,North,0,0.0,0.0,83,0.00,,,0.00,WUHU216HW,2013-07-12 02:17:00,
2013-07-11 19:22:00,57.1,51.9,30.04,North,0,0.0,0.0,83,0.00,,,0.00,WUHU216HW,2013-07-12 02:22:00,
2013-07-11 19:27:00,56.9,51.8,30.05,North,0,0.0,0.0,83,0.00,,,0.00,WUHU216HW,2013-07-12 02:27:00,
2013-07-11 19:32:00,56.7,51.6,30.04,North,0,0.0,0.0,83,0.00,,,0.00,WUHU216HW,2013-07-12 02:32:00,
2013-07-11 19:37:00,56.7,51.6,30.05,North,0,0.0,0.0,83,0.00,,,0.00,WUHU216HW,2013-07-12 02:37:00,
2013-07-11 19:42:00,56.7,51.8,30.05,North,0,0.0,0.0,84,0.00,,,0.00,WUHU216HW,2013-07-12 02:42:00,
2013-07-11 19:47:00,56.5,51.4,30.04,North,0,0.0,0.0,83,0.00,,,0.00,WUHU216HW,2013-07-12 02:47:00,
2013-07-11 19:52:00,56.2,51.0,30.04,North,0,0.0,0.0,83,0.00,,,0.00,WUHU216HW,2013-07-12 02:52:00,
2013-07-11 19:57:00,56.2,51.0,30.04,North,0,0.0,0.0,83,0.00,,,0.00,WUHU216HW,2013-07-12 02:57:00,
2013-07-11 20:02:00,56.2,51.3,30.04,North,0,0.0,0.0,84,0.00,,,0.00,WUHU216HW,2013-07-12 03:02:00,
2013-07-11 20:07:00,56.0,51.1,30.04,North,0,0.0,0.0,84,0.00,,,0.00,WUHU216HW,2013-07-12 03:07:00,
2013-07-11 20:12:00,56.0,51.1,30.04,North,0,0.0,0.0,84,0.00,,,0.00,WUHU216HW,2013-07-12 03:12:00,
2013-07-11 20:17:00,55.8,50.9,30.05,North,0,0.0,0.0,84,0.00,,,0.00,WUHU216HW,2013-07-12 03:17:00,
2013-07-11 20:23:00,55.8,50.9,30.04,North,0,0.0,0.0,84,0.00,,,0.00,WUHU216HW,2013-07-12 03:23:00,
2013-07-11 20:28:00,55.8,50.9,30.04,North,0,0.0,0.0,84,0.00,,,0.00,WUHU216HW,2013-07-12 03:28:00,
2013-07-11 20:33:00,55.6,51.1,30.05,North,0,0.0,0.0,85,0.00,,,0.00,WUHU216HW,2013-07-12 03:33:00,
2013-07-11 20:38:00,55.4,51.3,30.05,North,0,0.0,0.0,86,0.00,,,0.00,WUHU216HW,2013-07-12 03:38:00,
2013-07-11 20:43:00,55.4,51.3,30.05,North,0,0.0,0.0,86,0.00,,,0.00,WUHU216HW,2013-07-12 03:43:00,
2013-07-11 20:48:00,55.3,51.1,30.05,North,0,0.0,0.0,86,0.00,,,0.00,WUHU216HW,2013-07-12 03:48:00,
2013-07-11 20:53:00,55.3,51.1,30.05,North,0,0.0,0.0,86,0.00,,,0.00,WUHU216HW,2013-07-12 03:53:00,
2013-07-11 20:58:00,55.3,51.1,30.05,North,0,0.0,0.0,86,0.00,,,0.00,WUHU216HW,2013-07-12 03:58:00,
2013-07-11 21:03:00,55.3,51.1,30.05,North,0,0.0,0.0,86,0.00,,,0.00,WUHU216HW,2013-07-12 04:03:00,
2013-07-11 21:04:00,55.3,51.1,30.05,North,0,0.0,0.0,86,0.00,,,0.00,WUHU216HW,2013-07-12 04:04:00,
2013-07-11 21:05:00,55.3,51.1,30.05,North,0,0.0,0.0,86,0.00,,,0.00,WUHU216HW,2013-07-12 04:05:00,
2013-07-11 21:06:00,55.3,51.1,30.05,North,0,0.0,0.0,86,0.00,,,0.00,WUHU216HW,2013-07-12 04:06:00,
2013-07-11 21:15:00,55.1,51.0,30.05,North,0,0.0,0.0,86,0.00,,,0.00,WUHU216HW,2013-07-12 04:15:00,
2013-07-11 21:20:00,55.1,51.2,30.05,North,0,0.0,0.0,87,0.00,,,0.00,WUHU216HW,2013-07-12 04:20:00,
2013-07-11 21:25:00,55.1,51.2,30.05,North,0,0.0,0.0,87,0.00,,,0.00,WUHU216HW,2013-07-12 04:25:00,
2013-07-11 21:31:00,55.1,51.2,30.05,North,0,0.0,0.0,87,0.00,,,0.00,WUHU216HW,2013-07-12 04:31:00,
2013-07-11 21:36:00,55.1,51.2,30.05,North,0,0.0,0.0,87,0.00,,,0.00,WUHU216HW,2013-07-12 04:36:00,
2013-07-11 21:41:00,55.1,51.2,30.05,North,0,0.0,0.0,87,0.00,,,0.00,WUHU216HW,2013-07-12 04:41:00,
2013-07-11 21:46:00,55.1,51.2,30.06,North,0,0.0,0.0,87,0.00,,,0.00,WUHU216HW,2013-07-12 04:46:00,
2013-07-11 21:51:00,55.1,51.2,30.06,North,0,0.0,0.0,87,0.00,,,0.00,WUHU216HW,2013-07-12 04:51:00,
2013-07-11 21:56:00,55.1,51.2,30.06,North,0,0.0,0.0,87,0.00,,,0.00,WUHU216HW,2013-07-12 04:56:00,
2013-07-11 22:01:00,55.1,51.2,30.06,North,0,0.0,0.0,87,0.00,,,0.00,WUHU216HW,2013-07-12 05:01:00,
2013-07-11 22:06:00,55.1,51.2,30.06,North,0,0.0,0.0,87,0.00,,,0.00,WUHU216HW,2013-07-12 05:06:00,
2013-07-11 22:11:00,55.1,51.2,30.06,North,0,0.0,0.0,87,0.00,,,0.00,WUHU216HW,2013-07-12 05:11:00,
2013-07-11 22:16:00,54.9,51.0,30.06,North,0,0.0,0.0,87,0.00,,,0.00,WUHU216HW,2013-07-12 05:16:00,
2013-07-11 22:21:00,55.1,51.2,30.06,North,0,0.0,0.0,87,0.00,,,0.00,WUHU216HW,2013-07-12 05:21:00,
2013-07-11 22:26:00,55.1,51.2,30.06,North,0,0.0,0.0,87,0.00,,,0.00,WUHU216HW,2013-07-12 05:26:00,
2013-07-11 22:31:00,54.9,51.0,30.06,North,0,0.0,0.0,87,0.00,,,0.00,WUHU216HW,2013-07-12 05:31:00,
2013-07-11 22:36:00,54.9,51.0,30.06,North,0,0.0,0.0,87,0.00,,,0.00,WUHU216HW,2013-07-12 05:36:00,
2013-07-11 22:41:00,54.9,51.0,30.06,North,0,0.0,0.0,87,0.00,,,0.00,WUHU216HW,2013-07-12 05:41:00,
2013-07-11 22:46:00,54.9,51.0,30.06,North,0,0.0,0.0,87,0.00,,,0.00,WUHU216HW,2013-07-12 05:46:00,
2013-07-11 22:51:00,54.9,51.0,30.06,North,0,0.0,0.0,87,0.00,,,0.00,WUHU216HW,2013-07-12 05:51:00,
2013-07-11 22:56:00,54.9,51.0,30.06,North,0,0.0,0.0,87,0.00,,,0.00,WUHU216HW,2013-07-12 05:56:00,
2013-07-11 23:01:00,54.9,51.0,30.06,North,0,0.0,0.0,87,0.00,,,0.00,WUHU216HW,2013-07-12 06:01:00,
2013-07-11 23:06:00,54.9,51.0,30.06,North,0,0.0,0.0,87,0.00,,,0.00,WUHU216HW,2013-07-12 06:06:00,
2013-07-11 23:11:00,54.9,51.0,30.06,North,0,0.0,0.0,87,0.00,,,0.00,WUHU216HW,2013-07-12 06:11:00,
2013-07-11 23:16:00,54.7,50.9,30.06,North,0,0.0,0.0,87,0.00,,,0.00,WUHU216HW,2013-07-12 06:16:00,
2013-07-11 23:21:00,54.7,50.9,30.06,North,0,0.0,0.0,87,0.00,,,0.00,WUHU216HW,2013-07-12 06:21:00,
2013-07-11 23:26:00,54.7,50.9,30.06,North,0,0.0,0.0,87,0.00,,,0.00,WUHU216HW,2013-07-12 06:26:00,
2013-07-11 23:31:00,54.7,50.9,30.06,North,0,0.0,0.0,87,0.00,,,0.00,WUHU216HW,2013-07-12 06:31:00,
2013-07-11 23:36:00,54.7,50.9,30.06,North,0,0.0,0.0,87,0.00,,,0.00,WUHU216HW,2013-07-12 06:36:00,
2013-07-11 23:41:00,54.7,50.9,30.06,North,0,0.0,0.0,87,0.00,,,0.00,WUHU216HW,2013-07-12 06:41:00,
2013-07-11 23:46:00,54.7,50.9,30.06,North,0,0.0,0.0,87,0.00,,,0.00,WUHU216HW,2013-07-12 06:46:00,
2013-07-11 23:51:00,54.7,51.2,30.05,North,0,0.0,0.0,88,0.00,,,0.00,WUHU216HW,2013-07-12 06:51:00,
2013-07-11 23:56:00,54.7,51.2,30.05,North,0,0.0,0.0,88,0.00,,,0.00,WUHU216HW,2013-07-12 06:56:00,